"Pseudo-MPEC" for P22pBfO

Created 2026 Sep 5 6:35:13 UT using Find_Orb

Click here for an explanation of pseudo-MPECs

 
 Astrometry: 
     P22pBfO 0C2026 09 04.31027700 09 20.728+26 02 33.30   ~9545 20.88gUNEOCPI41
     P22pBfO*0C2026 09 04.42860800 09 00.153+26 17 17.38   ~94CK 20.16wXNEOCPF52
     P22pBfO 0C2026 09 04.44003100 08 57.838+26 18 41.59   ~94CK 20.57wXNEOCPF52
     P22pBfO 0C2026 09 04.45145500 08 55.496+26 20 05.68   ~94CK 21.37wXNEOCPF52
     P22pBfO 0C2026 09 04.53513200 08 38.336+26 30 17.28   ~94MZ 21.06GVNEOCPF52
     P22pBfO 0C2026 09 04.53576500 08 38.197+26 30 22.05   ~94MZ 20.89GVNEOCPF52
     P22pBfO KB2026 09 04.81477000 07 53.98 +27 03 34.0    ~94LK 20.7 VZNEOCP106
     P22pBfO KB2026 09 04.81946400 07 53.16 +27 04 09.6    ~94LK       ZNEOCP106
     P22pBfO KB2026 09 04.82415700 07 52.26 +27 04 44.3    ~94LK 20.5 VZNEOCP106
     P22pBfO KB2026 09 04.82906300 07 51.33 +27 05 20.4    ~94LK 20.8 VZNEOCP106
     P22pBfO KB2026 09 04.86071200 07 45.85 +27 09 11.4    ~94LZ 20.4 GXNEOCPI93
     P22pBfO KB2026 09 04.86945000 07 44.22 +27 10 15.9    ~94LZ 21.0 GXNEOCPI93
     P22pBfO KB2026 09 04.87819100 07 42.57 +27 11 20.7    ~94LZ 20.6 GXNEOCPI93
     P22pBfO KC2026 09 04.89527300 07 38.90 +27 13 28.8    ~950K       VNEOCP587
     P22pBfO KC2026 09 04.89651000 07 38.65 +27 13 37.9    ~950K 20.4 GVNEOCP587
     P22pBfO KB2026 09 04.89975 00 07 37.25 +27 14 03.9    ~94Mo 19.7 GXNEOCPL04
     P22pBfO KC2026 09 04.90517400 07 36.96 +27 14 42.0    ~950K       VNEOCP587
     P22pBfO KB2026 09 04.92555 00 07 32.16 +27 17 14.0    ~94Mo 19.7 GXNEOCPL04
     P22pBfO 0C2026 09 04.95458000 07 27.590+27 20 36.67   ~94NK 20.0 GWNEOCPJ95
     P22pBfO 0C2026 09 04.96237900 07 26.054+27 21 33.98   ~94NK 20.1 GWNEOCPJ95
     P22pBfO KC2026 09 05.22824700 06 38.03 +27 53 58.4    ~956K 21.4 GVNEOCPH21
     P22pBfO KC2026 09 05.23802800 06 36.05 +27 55 10.2    ~956K 21.6 GVNEOCPH21
     P22pBfO KC2026 09 05.24156900 06 35.32 +27 55 35.7    ~956K 21.1 GVNEOCPH21

Station data:
(106) Črni Vrh  (N45.945905 E14.071100)  Slovenia.  Observer J. Skvarč. 0.6-m
   f/3.3 Deltagraph + CCD.
(587) Sormano  (N45.882946 E9.229180)  Italy.  Observers E. Colzani, E. Valli.
    Measurer P. Sicoli. 0.5-m f/6.8 reflector + CCD.
(F52) Pan-STARRS 2, Haleakala  (N20.707382 W156.255910)  US/Hawaii.
   Observers J. Herman, T. Lowe, P. Minguez, A. Schultz, I. Smith. Measurers
   K. Chambers, T. de Boer, J. Fairlamb, H. Gao, M. Huber, C.-C. Lin, E.
   Magnier, Y. Ramanjooloo, R. Wainscoat, R. Weryk. 1.8-m Ritchey-Chrétien +
   CCD.
(H21) Astronomical Research Observatory, Westfield  (N39.483054 W87.968270)
   US/Illinois.  Observer R. Holmes. Measurers S. Foglia, L. Buzzi, T.
   Linder, R. Holmes. 0.40-m f/5.32 astrograph + CCD.
(I41) Palomar Mountain--ZTF  (N33.357336 W116.859780)  US/California.
   Observers B. T. Bolin, Z. T. F. Collaboration. Measurers B. T. Bolin,
   Z.-Y. Lin, F. J. Masci. 1.2-m f/2.4 Schmidt.
(I93) St Pardon de Conques  (N44.558670 W0.202960)  France.  Observers F.
   Losse, W. D'Anna. Measurer F. Losse. 0.40-m f/3.7 reflector + CCD.
(J95) Great Shefford  (N51.474969 W1.447003)  UK/England.  Observer P.
   Birtwhistle. 0.41-m f/6.3 Schmidt-Cassegrain + CCD.
(L04) ROASTERR-1 Observatory, Cluj-Napoca  (N46.820952 E23.596400)  Romania.
   Observer L. Hudin. 0.1-m f/9 refractor + CCD.

Orbital elements:  P22pBfO
   Perihelion 2026 Oct 1.592881 +/- 0.698 TT = 14:13:44.9 (JD 2461315.092881)
Epoch 2026 Sep  5.0 TT = JDT 2461288.5   Earth MOID: 0.1083      AutoNEOCP
M 341.834264788 +/- 0.51            (J2000 ecliptic)
n   0.683105184 +/- 0.0017          Peri.   34.757992 +/- 0.6
a   1.276863076 +/- 0.00212         Node   334.935292 +/- 0.015
e   0.14123917 +/- 0.000971         Incl.   14.684663 +/- 0.048
P   1.443/526.995d         H 23.65  G  0.15   U  8.5
q 1.096519985 +/- 0.000594    Q 1.457206166 +/- 0.00366
From 23 observations 2026 Sept. 4-5 (22.4 hr); mean residual 0".26
Residuals in arcseconds: 
260904 I41  .09-  .81-    260904 106  .06-  .30+    260904 587  .21-  .31+    
260904 F52  .01-  .21+    260904 106  .25-  .03+    260904 L04  .19+  .59+    
260904 F52  .09+  .09+    260904 I93  .41-  .33+    260904 J95  .17+  .23-    
260904 F52  .05-  .01-    260904 I93  .35-  .05+    260904 J95  .05+  .18-    
260904 F52  .10+  .05-    260904 I93  .39-  .08+    260905 H21  .25-  .09+    
260904 F52  .03-  .13+    260904 587  .03-  .15+    260905 H21  .11+  .50+    
260904 106  .36-  .38-    260904 587  .16-  .12+    260905 H21  .08+  .18+    
260904 106  .30+  .40+    260904 L04  .32-  .23-    

Ephemerides (geocentric):
Date (UTC) HH   RA             Dec           delta  r     elong  mag " sig PA
---- --------  ------------   ------------  ------ ------ -----  --- --------
2026 09 05 07  00 06 24.914   +28 01 52.91  .12507 1.1083 141.0 20.8 .122 124
2026 09 05 08  00 06 17.338   +28 06 54.09  .12508 1.1083 141.0 20.8 .116 120
2026 09 05 09  00 06 09.746   +28 11 55.07  .12509 1.1083 141.0 20.8 .109 114
2026 09 05 10  00 06 02.139   +28 16 55.84  .12511 1.1082 140.9 20.8 .103 108
2026 09 05 11  00 05 54.517   +28 21 56.40  .12512 1.1082 140.9 20.8 .097  99
2026 09 05 12  00 05 46.880   +28 26 56.75  .12514 1.1081 140.9 20.8 .094  89
2026 09 05 13  00 05 39.227   +28 31 56.89  .12515 1.1081 140.9 20.8 .093  78
2026 09 05 14  00 05 31.559   +28 36 56.81  .12517 1.1081 140.8 20.8 .096  66
2026 09 05 15  00 05 23.876   +28 41 56.52  .12518 1.1080 140.8 20.8 .103  55
2026 09 05 16  00 05 16.178   +28 46 56.01  .12520 1.1080 140.8 20.8 .114  45
2026 09 05 17  00 05 08.464   +28 51 55.27  .12521 1.1080 140.7 20.8 .129  36
2026 09 05 18  00 05 00.735   +28 56 54.32  .12523 1.1079 140.7 20.8 .148  29
2026 09 05 19  00 04 52.991   +29 01 53.15  .12525 1.1079 140.7 20.8 .170  23
2026 09 05 20  00 04 45.231   +29 06 51.74  .12526 1.1079 140.6 20.8 .194  18
2026 09 05 21  00 04 37.456   +29 11 50.11  .12528 1.1078 140.6 20.8 .220  14
2026 09 05 22  00 04 29.666   +29 16 48.25  .12530 1.1078 140.6 20.8 .249  11
2026 09 05 23  00 04 21.860   +29 21 46.16  .12532 1.1077 140.5 20.8 .279   8
2026 09 06 00  00 04 14.040   +29 26 43.84  .12533 1.1077 140.5 20.8 .311   6
2026 09 06 01  00 04 06.204   +29 31 41.28  .12535 1.1077 140.5 20.8 .345   4
2026 09 06 02  00 03 58.353   +29 36 38.48  .12537 1.1076 140.4 20.8 .380   3
2026 09 06 03  00 03 50.486   +29 41 35.44  .12539 1.1076 140.4 20.8 .418   1
2026 09 06 04  00 03 42.605   +29 46 32.16  .12541 1.1076 140.4 20.8 .456   0
2026 09 06 05  00 03 34.708   +29 51 28.64  .12543 1.1075 140.3 20.8 .497 179
2026 09 06 06  00 03 26.796   +29 56 24.88  .12545 1.1075 140.3 20.8 .538 178
2026 09 06 07  00 03 18.868   +30 01 20.87  .12547 1.1075 140.3 20.8 .582 177
2026 09 06 08  00 03 10.926   +30 06 16.61  .12549 1.1074 140.2 20.8 .627 176
2026 09 06 09  00 03 02.968   +30 11 12.10  .12551 1.1074 140.2 20.8 .673 176
2026 09 06 10  00 02 54.995   +30 16 07.33  .12554 1.1074 140.2 20.8 .721 175
2026 09 06 11  00 02 47.007   +30 21 02.32  .12556 1.1073 140.1 20.8 .770 174
2026 09 06 12  00 02 39.003   +30 25 57.04  .12558 1.1073 140.1 20.8 .821 174
2026 09 06 13  00 02 30.985   +30 30 51.51  .12560 1.1072 140.1 20.8 .873 173
2026 09 06 14  00 02 22.951   +30 35 45.72  .12563 1.1072 140.0 20.8 .926 173
2026 09 06 15  00 02 14.902   +30 40 39.67  .12565 1.1072 140.0 20.8 .981 172
2026 09 06 16  00 02 06.838   +30 45 33.36  .12567 1.1071 140.0 20.8 1.04 172
2026 09 06 17  00 01 58.759   +30 50 26.78  .12570 1.1071 139.9 20.8 1.10 172
2026 09 06 18  00 01 50.665   +30 55 19.93  .12572 1.1071 139.9 20.8 1.16 171
2026 09 06 19  00 01 42.555   +31 00 12.82  .12575 1.1070 139.9 20.8 1.22 171
2026 09 06 20  00 01 34.431   +31 05 05.43  .12577 1.1070 139.8 20.8 1.28 171
2026 09 06 21  00 01 26.291   +31 09 57.78  .12580 1.1070 139.8 20.8 1.34 171
2026 09 06 22  00 01 18.136   +31 14 49.85  .12582 1.1069 139.8 20.8 1.41 170
2026 09 06 23  00 01 09.966   +31 19 41.64  .12585 1.1069 139.7 20.8 1.47 170
2026 09 07 00  00 01 01.781   +31 24 33.16  .12588 1.1069 139.7 20.8 1.54 170
2026 09 07 01  00 00 53.581   +31 29 24.40  .12590 1.1068 139.7 20.8 1.61 170
2026 09 07 02  00 00 45.366   +31 34 15.35  .12593 1.1068 139.6 20.8 1.68 169
2026 09 07 03  00 00 37.136   +31 39 06.03  .12596 1.1068 139.6 20.9 1.75 169
2026 09 07 04  00 00 28.890   +31 43 56.42  .12598 1.1067 139.5 20.9 1.83 169
2026 09 07 05  00 00 20.630   +31 48 46.53  .12601 1.1067 139.5 20.9 1.90 169
2026 09 07 06  00 00 12.355   +31 53 36.34  .12604 1.1067 139.5 20.9 1.98 169